Theta_e
290 291 291 291 291 290 290 291 291 291 294 298 298 299 299 300 301 298 291 292 287 283 284 285 285 284 285 287 287 285 287 286 285 285 284 284 273 279 276 280 280 278 275 273 269 268 276 282 283 286 287 284 285 286
290 291 291 291 291 291 290 290 292 290 293 297 297 298 298 299 300 298 291 292 292 285 284 286 286 286 285 287 287 285 287 286 290 285 284 280 277 275 274 274 282 279 283 278 282 281 284 284 284 286 286 286 286 286
290 290 291 291 291 291 291 291 292 292 293 295 296 297 297 298 299 296 292 291 287 282 283 283 283 287 290 288 290 286 285 287 285 286 283 279 276 277 276 274 279 280 280 280 282 280 282 283 284 285 285 285 286 285
291 290 290 290 290 290 291 291 291 293 292 294 295 295 296 297 298 296 291 291 288 282 279 281 286 285 288 289 290 292 289 289 288 286 284 280 275 279 275 280 280 282 284 279 278 280 282 283 285 286 285 285 285 285
291 289 289 290 289 290 291 291 291 293 293 294 295 295 295 297 298 293 292 292 291 284 277 279 283 285 286 289 290 293 291 288 286 284 283 280 279 277 274 278 276 282 282 282 280 284 285 285 285 286 285 284 285 285
291 290 289 290 291 290 291 291 291 292 293 294 294 295 295 297 295 287 281 290 292 287 280 274 281 281 284 286 286 286 288 286 285 284 281 280 281 280 274 271 280 282 283 284 285 285 284 284 285 286 285 284 284 284
290 291 290 290 291 290 290 291 291 293 293 294 294 295 295 297 289 282 279 285 293 287 277 274 276 281 282 282 282 283 284 282 284 281 280 280 280 278 269 268 279 281 282 282 284 285 285 287 286 285 285 283 280 277
289 290 291 291 290 291 291 292 292 291 292 293 294 293 294 296 293 287 288 295 291 280 277 272 271 276 281 277 278 279 279 280 278 279 279 278 279 275 270 278 279 280 281 281 280 281 284 282 281 279 278 279 280 279
289 288 289 290 291 291 291 291 291 291 290 291 293 293 290 286 281 284 295 293 290 284 272 267 271 270 279 279 278 278 278 274 278 276 277 278 271 270 275 278 280 280 281 280 277 276 278 279 278 276 275 275 276 275
287 288 288 288 289 289 289 290 290 290 290 291 286 279 277 276 290 293 286 283 282 280 274 266 266 271 277 275 274 274 273 272 270 273 277 272 269 277 278 279 281 281 280 278 278 277 275 275 274 272 273 272 273 273
285 286 287 287 287 288 289 289 288 288 286 279 278 275 280 289 284 282 279 277 277 275 271 267 267 275 276 272 270 275 269 267 267 270 272 270 268 276 277 276 274 275 277 274 275 275 274 274 274 274 271 270 269 268
284 284 285 286 286 287 287 287 288 280 277 278 280 281 281 278 276 273 272 273 273 270 265 269 270 272 273 276 273 270 266 264 263 269 266 261 270 270 269 269 266 268 269 267 268 268 268 267 267 268 266 262 261 261
283 283 284 285 286 286 286 286 286 285 282 274 275 275 268 271 269 268 267 268 267 265 269 271 272 274 272 273 268 269 266 264 264 263 263 266 266 263 262 263 264 262 264 264 263 262 263 261 260 259 258 255 255 257
282 282 283 284 285 286 285 285 285 280 272 268 265 267 263 264 263 263 260 259 265 265 269 272 270 271 266 269 268 266 266 265 261 259 262 264 257 256 258 258 261 259 258 257 256 257 257 257 256 254 253 253 253 253
282 282 283 283 285 285 284 282 280 268 264 260 263 263 259 260 259 257 258 259 264 264 267 266 269 272 269 269 266 262 262 260 262 264 264 256 253 254 254 254 254 254 255 254 252 252 253 253 252 250 250 249 250 250
282 281 278 284 283 283 282 271 261 262 258 255 253 259 259 264 262 258 257 260 263 263 266 271 269 269 269 270 265 262 262 261 263 254 250 253 251 251 250 250 250 251 251 251 251 249 249 248 247 247 246 247 247 247
280 273 283 282 280 278 277 260 258 252 254 251 251 254 251 256 257 257 257 259 262 265 267 267 265 267 270 267 260 256 259 254 247 247 247 246 248 248 248 248 248 248 249 249 249 249 248 247 246 248 250 249 247 246
265 271 282 282 270 268 257 254 252 251 251 248 251 254 253 254 255 256 257 259 260 265 268 267 266 261 258 257 257 251 249 247 247 246 246 244 243 244 245 247 248 248 248 247 246 245 246 248 249 248 246 247 248 247
271 277 280 279 270 257 256 255 253 249 247 246 251 251 253 255 256 257 256 256 258 260 262 263 261 259 255 249 246 246 246 246 244 246 245 243 241 242 244 244 245 246 247 246 246 246 245 245 246 246 246 247 248 248
279 279 278 275 270 258 254 253 252 252 249 251 251 252 252 256 255 255 254 252 254 257 253 252 249 247 249 249 247 246 245 246 242 244 245 245 243 243 243 242 244 242 243 243 243 246 246 247 246 245 245 246 246 248
271 272 274 265 258 255 252 250 253 253 255 254 256 254 253 254 252 251 250 250 252 246 248 246 245 246 246 244 244 241 243 243 245 244 244 244 244 243 242 242 241 240 242 241 242 244 243 243 244 243 241 243 242 243
267 272 262 264 258 253 255 256 255 258 260 258 258 255 253 254 250 250 248 250 246 243 242 242 242 240 240 241 241 240 241 240 239 241 245 244 243 244 244 242 242 243 241 242 241 242 243 244 244 242 242 244 245 245
265 264 258 256 256 254 251 254 251 252 256 254 253 252 251 248 246 246 245 240 241 240 238 237 238 237 238 240 239 239 239 240 241 243 246 246 246 247 245 244 242 244 247 246 242 242 244 247 246 246 245 245 244 244
258 249 249 249 250 247 249 249 249 248 247 246 246 247 246 241 244 247 245 241 244 238 239 240 237 240 240 240 240 241 241 241 242 244 248 249 251 251 249 250 249 248 248 244 242 242 242 242 245 243 243 242 242 242
253 245 246 244 245 247 247 248 247 248 244 241 244 246 244 238 246 245 245 245 242 240 240 237 237 237 240 239 239 240 239 241 242 242 245 247 249 251 252 252 251 250 244 245 243 241 241 240 241 240 241 240 241 244
243 239 242 238 241 243 240 244 242 241 240 244 241 240 236 242 248 247 245 244 241 241 241 241 241 239 239 240 240 240 242 237 238 239 243 243 245 246 247 247 248 250 246 245 242 241 241 242 240 242 242 243 244 241
246 242 239 237 237 237 239 238 237 239 240 242 239 241 242 246 245 247 243 241 243 242 239 238 239 240 243 243 241 241 239 236 242 243 241 241 244 245 247 247 247 248 245 243 243 243 242 243 243 242 243 243 241 242
237 235 240 239 237 233 238 235 237 240 238 236 236 244 246 245 247 247 246 242 238 235 236 238 240 241 242 243 243 241 241 236 236 240 241 243 244 245 245 247 247 251 243 242 243 244 241 241 242 242 242 243 245 243
236 232 233 239 235 237 237 239 239 236 235 233 239 240 242 242 240 239 241 237 231 235 239 240 241 232 238 238 239 240 239 236 240 243 243 244 243 247 240 240 240 240 241 241 245 250 245 244 244 244 244 245 247 247
237 229 237 235 240 243 239 234 234 229 228 231 229 235 236 238 239 234 234 234 237 241 240 238 236 234 240 236 242 243 239 239 242 245 244 246 246 242 238 238 241 242 242 241 243 245 248 248 245 242 244 245 245 246
231 230 235 234 237 235 231 227 225 226 227 227 225 230 236 236 237 238 238 237 236 233 236 242 240 236 236 236 236 237 247 241 240 242 244 245 245 245 246 246 246 244 243 242 242 243 244 243 243 243 243 243 245 245
232 232 236 240 239 232 227 228 228 230 229 230 232 225 232 234 239 246 241 236 236 238 244 242 239 247 245 245 243 244 248 249 245 245 243 245 246 246 247 247 246 244 243 244 244 243 243 242 243 244 244 244 245 245
231 227 228 232 237 239 234 234 234 237 233 233 234 231 231 236 245 248 243 243 249 249 250 248 248 248 246 245 246 247 247 247 247 251 252 252 249 249 248 247 246 245 245 244 245 245 244 243 243 244 244 245 245 246
Wind_Speed
12 13 14 11 11 10 8 7 4 5 15 11 10 9 8 7 13 5 1 0 2 2 1 3 5 4 1 3 11 8 7 1 2 4 5 4 4 7 4 6 9 9 8 6 3 1 20 6 6 22 7 2 2 1
16 14 13 13 10 10 9 9 5 3 14 12 10 7 7 5 14 8 0 1 1 3 1 0 0 1 3 6 2 1 2 5 6 5 3 5 3 3 6 5 1 4 8 9 14 10 3 6 1 3 3 3 3 2
17 14 13 13 10 11 11 10 8 4 8 5 8 7 5 4 7 5 2 1 2 3 2 3 4 6 9 8 8 4 1 5 3 3 5 3 5 3 5 5 4 4 1 4 5 4 4 5 1 2 3 3 2 2
17 12 10 9 7 9 11 12 10 11 5 3 5 6 5 3 6 4 3 0 1 3 3 1 3 3 8 10 6 5 7 6 4 3 3 3 4 1 2 2 4 4 8 6 3 2 2 2 6 4 3 4 5 3
17 6 6 7 3 6 11 14 12 10 10 7 5 5 4 6 10 6 3 2 1 2 4 1 2 5 5 4 5 7 9 6 2 3 3 2 3 4 2 3 3 5 6 6 6 7 4 4 8 6 6 5 4 5
17 9 6 8 9 3 8 12 11 9 9 9 7 5 5 10 8 4 3 0 1 2 5 3 2 5 6 7 12 9 4 4 2 4 3 2 1 2 3 3 4 2 2 1 4 5 4 5 7 5 6 4 3 7
23 18 12 10 9 7 5 10 11 10 9 9 9 6 4 10 4 2 4 2 3 3 4 3 2 3 3 3 3 3 4 3 3 2 4 3 2 3 3 3 1 3 2 1 2 7 4 2 5 4 6 6 4 4
20 23 22 14 10 11 13 14 12 8 5 7 10 6 1 7 7 3 3 5 4 5 4 4 1 2 4 3 3 3 2 2 5 2 1 2 1 2 1 3 2 3 6 6 5 4 3 7 7 5 3 3 4 5
21 17 18 18 14 16 13 12 12 10 3 4 12 7 4 4 2 2 10 11 4 3 4 3 5 3 2 2 2 2 2 4 1 3 2 2 2 2 6 4 5 5 3 7 4 7 7 8 6 4 4 5 5 2
18 20 17 20 22 22 18 12 13 13 14 11 5 4 1 2 6 8 3 2 0 2 3 3 2 3 3 1 2 2 3 2 2 1 1 4 3 4 5 5 2 5 5 4 6 4 3 4 3 3 3 2 3 2
13 15 17 17 18 20 20 18 9 10 8 3 2 2 2 2 2 1 3 3 2 2 2 1 2 6 3 4 3 2 2 1 3 3 3 2 3 3 8 9 11 10 7 7 6 6 7 6 4 5 5 5 5 5
12 11 13 15 14 16 18 18 15 5 1 3 2 2 2 3 2 3 1 1 2 5 0 4 3 4 1 2 4 3 4 3 3 2 5 1 5 5 7 8 11 11 9 10 10 10 9 10 7 6 6 6 6 5
8 9 9 10 12 15 17 17 15 6 4 3 4 3 5 2 3 2 4 0 2 0 3 3 3 3 2 4 4 3 4 2 0 4 4 6 0 4 6 5 7 10 10 9 9 7 8 8 9 8 5 5 5 6
6 6 4 6 9 13 15 16 14 5 5 5 4 3 4 2 3 1 1 3 2 2 2 3 3 3 1 5 2 6 2 3 4 2 5 3 3 4 5 6 5 7 9 8 8 7 8 7 7 6 7 5 5 7
5 2 4 6 13 12 12 13 15 6 5 4 4 4 3 2 0 1 3 1 3 4 2 2 4 4 3 5 2 5 4 1 5 5 3 2 4 5 5 5 7 7 6 6 5 5 6 6 5 4 5 5 5 4
8 10 6 12 14 16 12 10 8 4 6 6 10 3 3 0 3 4 4 2 4 5 3 2 4 4 3 4 3 4 7 6 4 1 2 4 3 4 4 5 5 4 4 4 3 3 3 5 3 1 3 4 4 4
13 2 13 13 12 13 22 7 6 10 6 7 4 1 1 0 0 2 3 4 5 3 3 3 5 2 2 3 1 3 5 2 3 3 2 2 3 4 5 4 4 5 4 4 3 5 3 4 2 2 4 5 5 4
3 5 15 15 8 8 6 7 7 7 7 2 4 2 2 1 3 2 4 3 5 3 3 2 4 5 3 5 3 1 0 2 2 2 2 2 3 3 2 4 4 4 4 3 2 3 3 5 4 2 3 3 4 3
5 11 19 16 9 7 6 7 5 6 2 2 3 2 1 1 1 2 4 4 3 2 1 3 6 3 2 1 2 2 1 1 2 3 3 2 1 3 4 3 3 3 5 4 4 2 2 3 3 2 3 3 2 3
15 19 16 19 11 6 7 5 3 6 3 3 2 4 2 2 4 3 4 6 4 3 9 7 2 1 0 0 2 2 2 1 0 4 3 3 1 5 4 2 2 3 3 4 2 1 3 3 1 2 2 2 2 3
10 10 15 8 5 8 6 3 5 2 0 3 2 2 2 3 4 6 6 6 7 5 3 1 1 2 0 1 1 1 2 2 2 3 2 3 2 2 3 2 2 1 1 1 2 3 2 2 3 2 2 3 3 3
4 12 5 8 6 5 6 3 2 2 2 1 2 3 4 4 4 5 5 7 4 2 2 1 2 2 3 3 3 4 4 3 2 2 4 4 3 3 3 2 3 3 3 3 2 2 3 3 3 2 2 4 3 3
8 7 6 8 7 8 3 3 5 6 3 2 3 4 3 3 2 3 5 1 3 2 1 2 4 3 4 5 3 4 4 3 2 3 3 3 4 4 3 3 3 3 3 3 3 2 3 4 4 3 3 3 2 3
12 10 9 7 8 3 4 6 3 4 4 6 4 3 4 3 6 4 3 2 4 2 1 2 1 3 2 2 2 3 3 2 2 4 3 2 3 3 2 3 3 4 5 3 2 2 2 2 4 3 2 2 3 2
10 13 8 10 6 7 9 7 7 7 4 4 4 4 4 4 4 4 0 4 3 2 2 2 1 1 2 4 4 4 3 3 1 3 4 3 2 3 3 2 4 4 3 2 2 2 3 3 2 3 3 2 4 5
12 6 7 3 4 5 2 4 5 4 3 5 2 4 3 3 5 1 3 3 3 3 3 2 2 2 3 5 3 2 4 3 3 2 5 3 3 3 3 4 4 4 4 3 3 3 4 3 3 6 5 5 5 4
8 6 4 0 2 1 2 2 0 2 4 3 3 6 4 5 2 5 3 3 3 3 3 3 4 4 5 4 4 5 4 3 6 5 3 4 5 5 6 6 7 4 3 4 3 3 4 6 6 6 7 5 5 6
3 3 2 6 3 1 2 2 3 2 2 2 1 4 2 5 4 4 5 3 3 1 3 4 5 5 5 7 5 4 5 2 4 6 7 8 8 7 8 7 7 9 4 5 6 6 6 7 7 7 7 8 9 4
3 3 0 4 3 3 1 2 3 3 2 3 3 3 5 4 4 3 3 1 1 2 4 3 3 1 5 5 6 5 4 3 1 4 4 5 4 4 4 4 4 3 4 5 10 11 10 9 9 9 11 9 9 7
4 1 2 1 2 2 3 3 3 2 1 1 1 4 4 5 6 1 1 0 1 4 4 3 2 1 4 2 5 6 4 6 7 6 4 5 6 3 3 4 5 5 5 5 7 8 10 8 6 5 7 7 7 8
1 2 2 1 4 3 3 1 1 1 1 1 1 3 5 6 8 4 4 4 3 1 2 5 4 4 4 4 4 3 6 3 7 10 9 7 7 7 7 7 7 5 5 5 6 7 7 6 7 9 9 12 13 12
4 2 1 4 5 3 2 3 1 1 2 1 3 1 5 4 5 5 4 5 2 3 8 5 3 6 7 6 4 5 9 7 5 8 10 9 9 10 9 7 6 6 6 8 8 9 10 11 10 11 12 15 15 15
1 0 1 3 5 6 4 5 4 5 2 2 4 3 3 3 6 5 2 7 7 5 5 5 6 6 6 8 8 8 9 9 11 13 15 15 16 14 8 7 7 8 9 10 10 9 12 14 14 15 16 16 17 16
Wind_Direction
342 331 322 310 294 276 262 270 105 33 318 180 158 164 160 157 168 130 201 209 174 118 1 358 339 18 18 207 170 155 131 251 80 127 158 171 141 200 105 163 173 151 146 187 89 150 257 152 56 177 224 123 195 50
340 333 321 310 292 263 249 249 159 121 303 157 141 137 141 157 161 128 231 112 34 90 129 145 284 51 355 315 104 20 129 135 147 129 178 117 116 142 153 198 317 189 184 172 188 209 242 204 21 108 134 155 190 155
333 322 316 306 286 259 238 222 199 150 324 121 141 130 122 151 168 129 152 118 68 119 24 19 353 331 353 349 295 132 137 120 119 173 163 142 140 136 155 233 106 259 171 179 103 230 199 200 238 196 183 146 107 79
330 313 310 315 279 233 224 207 213 165 216 209 138 133 127 122 145 102 112 276 63 92 109 341 305 7 324 333 333 19 113 86 106 62 80 107 122 177 192 148 167 186 141 163 289 358 67 239 213 146 105 98 108 71
346 343 336 352 280 237 211 193 201 181 176 203 160 133 121 120 104 87 94 110 104 151 139 102 311 357 348 17 64 88 88 85 70 77 60 112 122 110 326 43 266 187 165 177 223 189 157 205 166 154 144 141 116 109
16 11 22 17 44 56 187 183 193 181 189 181 165 145 107 146 121 68 25 252 105 60 95 79 302 352 345 46 54 51 55 57 73 96 115 104 352 106 107 186 260 209 199 257 188 142 100 91 109 121 121 116 85 92
27 29 30 33 57 55 90 182 192 183 176 166 162 134 70 161 74 96 188 229 118 76 86 86 34 321 328 20 55 25 5 39 50 75 52 91 79 76 103 169 255 199 175 169 133 124 73 144 149 123 116 106 80 69
31 37 25 32 65 74 74 85 91 97 99 176 168 140 357 126 66 16 328 125 72 90 70 111 293 14 2 33 56 16 48 32 17 91 54 94 87 67 32 237 124 111 101 59 11 10 92 103 84 81 54 112 74 61
16 29 46 33 47 66 74 80 83 69 146 233 139 127 69 50 76 274 109 77 55 81 122 103 141 176 2 58 50 23 23 59 307 90 81 67 358 205 222 201 182 175 165 144 66 58 65 90 115 98 83 52 90 62
17 6 29 38 41 48 44 56 64 72 36 62 59 66 117 239 309 157 35 142 115 74 51 116 328 111 88 7 43 62 14 63 81 309 56 62 251 286 262 242 178 129 94 104 93 76 60 67 90 62 67 63 87 97
15 12 23 32 30 36 33 31 29 94 46 26 89 108 232 299 54 131 233 161 137 106 51 136 164 122 321 103 134 2 154 342 87 258 119 46 282 241 10 59 35 34 74 47 67 68 58 76 107 114 83 58 58 55
6 18 16 21 26 31 30 21 26 48 51 128 125 119 60 49 81 142 207 91 102 184 209 119 185 134 100 85 92 347 108 43 199 219 81 287 248 31 19 35 30 26 40 51 39 55 46 53 31 60 57 41 28 22
8 11 16 18 20 24 19 23 19 44 74 39 57 58 71 320 78 131 165 88 88 206 181 161 105 113 80 59 65 86 81 199 2 52 205 224 24 45 17 9 48 30 40 48 42 39 51 57 45 41 52 17 14 35
6 15 22 28 28 26 8 15 19 24 66 62 74 52 91 43 45 33 211 194 284 302 183 111 84 102 98 62 118 89 250 59 50 70 234 251 22 354 21 21 41 26 31 39 30 32 44 50 58 47 46 20 17 31
6 51 91 56 38 15 21 24 27 40 62 63 40 57 48 277 48 282 252 321 342 302 296 50 56 81 43 97 65 105 52 189 194 219 230 2 355 7 27 24 24 27 17 24 5 14 30 32 58 58 24 15 29 23
63 43 10 61 42 27 28 43 29 58 60 57 32 68 358 347 36 6 336 8 8 322 286 22 88 66 70 120 101 183 120 204 232 11 311 329 0 14 13 13 13 4 7 3 10 347 6 24 28 327 323 17 8 26
60 2 22 30 31 42 33 64 45 44 71 42 33 21 27 310 276 301 322 325 312 280 75 98 75 120 88 87 81 210 185 236 262 309 310 343 343 342 343 349 10 359 356 3 360 11 358 324 333 40 33 341 341 354
37 311 22 14 36 44 34 38 76 62 60 355 67 1 301 294 316 328 328 328 344 8 3 82 125 67 121 138 278 269 7 259 212 231 271 300 327 329 337 339 343 342 337 352 20 345 339 8 22 8 298 308 315 350
60 39 23 27 60 83 59 18 49 88 257 266 296 300 335 299 244 274 310 315 293 300 51 35 62 65 111 196 207 275 287 312 284 299 274 257 251 348 333 330 327 350 341 339 356 350 317 266 261 306 314 330 334 322
54 35 23 32 45 65 54 7 47 80 58 271 18 357 3 358 316 323 346 4 3 42 39 41 94 216 237 2 174 206 228 233 26 337 331 338 348 1 349 327 312 304 319 335 333 360 2 351 332 321 309 279 329 322
28 353 19 51 46 60 87 356 46 97 219 59 325 23 329 353 14 8 352 331 54 40 42 308 226 234 332 267 165 188 249 201 214 176 203 308 305 290 281 287 307 334 11 315 326 318 0 248 263 290 293 290 258 244
344 12 46 17 70 41 77 12 70 347 25 43 41 22 24 18 357 6 307 39 54 256 206 234 275 286 325 312 254 211 226 190 228 266 269 268 290 328 317 280 3 317 310 262 219 265 283 278 282 271 271 288 307 304
15 26 45 13 63 42 310 17 61 1 66 346 21 42 19 355 276 336 63 218 253 254 228 227 246 231 237 293 325 286 214 188 270 256 254 235 237 245 258 261 190 246 290 285 198 239 263 293 304 306 304 310 330 315
33 45 32 37 24 7 340 18 32 27 37 26 26 26 349 296 320 55 90 260 247 296 259 255 316 316 327 346 315 281 276 180 269 288 245 243 274 264 220 262 249 231 233 251 263 267 278 287 312 327 327 311 303 289
64 1 26 3 358 17 23 4 357 25 35 335 28 360 341 344 49 47 71 276 312 284 265 301 29 112 200 273 290 283 274 149 199 277 274 210 268 279 264 242 266 258 165 192 263 248 278 295 305 307 285 281 292 300
65 327 49 315 331 46 333 21 10 346 353 358 342 284 3 36 53 324 257 243 244 224 232 205 201 318 283 207 237 280 257 187 122 226 273 201 197 214 270 289 302 290 185 196 163 225 268 272 276 293 290 284 272 277
51 343 342 207 136 123 3 348 7 71 39 7 321 343 20 57 297 260 281 238 218 234 212 190 167 194 233 267 257 258 248 198 209 224 262 255 243 223 230 246 255 249 154 185 208 209 260 288 283 273 275 278 248 246
126 15 17 326 4 48 126 36 39 20 275 232 57 10 122 185 237 241 214 232 214 267 262 247 226 226 242 249 255 272 285 278 284 274 269 253 239 232 226 236 247 250 220 213 229 238 226 239 249 255 257 266 276 233
34 324 105 340 334 18 155 146 231 240 194 120 155 261 252 236 246 240 264 204 128 32 315 323 298 289 259 253 246 233 220 156 146 301 293 277 324 292 201 216 236 238 236 244 254 244 230 232 237 241 248 253 265 267
331 38 22 8 28 326 261 166 241 265 261 231 280 303 284 268 251 229 257 297 258 237 231 235 260 102 269 321 304 303 218 190 202 199 213 248 233 245 214 223 234 236 221 222 252 265 268 277 300 301 282 268 258 260
315 25 8 178 253 250 240 290 328 345 346 290 298 206 264 307 305 238 206 214 210 215 325 287 288 205 210 230 214 284 300 227 212 226 237 256 263 261 256 248 241 231 222 228 242 248 256 258 249 257 258 258 260 255
5 85 61 309 296 292 35 33 292 282 300 338 271 279 303 339 291 281 193 138 119 252 238 208 232 262 211 228 228 236 246 267 238 232 232 240 247 250 253 252 244 231 230 239 239 241 242 242 254 252 255 257 257 257
7 173 219 319 319 337 344 356 8 330 342 302 270 211 228 205 246 277 261 215 222 220 237 229 234 250 241 240 242 253 240 245 251 254 254 247 245 249 251 242 235 232 235 242 246 243 244 244 249 254 256 257 260 262